GFSFLT2_prec_precacc12_234.txt.gz
Total_Precipitation_Accumulation
0.00 0.00 0.01 0.01 0.01 0.01 0.00 0.00 0.00 0.00 0.00 0.00 0.00 0.00 0.00 0.00 0.00 0.00 0.00 0.00 0.00 0.00 0.00 0.00 0.00 0.00 0.00 0.00 0.00 0.00 0.00 0.00
0.00 0.00 0.00 0.00 0.00 0.01 0.00 0.00 0.00 0.00 0.00 0.00 0.00 0.00 0.00 0.00 0.00 0.00 0.00 0.00 0.00 0.00 0.00 0.00 0.00 0.00 0.00 0.00 0.00 0.00 0.00 0.00
0.00 0.00 0.00 0.00 0.00 0.00 0.01 0.00 0.00 0.00 0.00 0.00 0.00 0.00 0.00 0.00 0.00 0.00 0.00 0.00 0.00 0.00 0.00 0.00 0.00 0.00 0.00 0.00 0.00 0.00 0.00 0.00
0.01 0.01 0.00 0.00 0.00 0.00 0.00 0.00 0.00 0.00 0.00 0.00 0.00 0.00 0.00 0.00 0.00 0.00 0.00 0.00 0.00 0.00 0.00 0.00 0.00 0.00 0.00 0.00 0.00 0.00 0.00 0.00
0.01 0.01 0.00 0.00 0.00 0.01 0.01 0.00 0.00 0.02 0.01 0.00 0.00 0.00 0.00 0.02 0.01 0.00 0.00 0.00 0.00 0.00 0.00 0.00 0.00 0.00 0.00 0.00 0.00 0.00 0.00 0.00
0.00 0.01 0.01 0.01 0.00 0.01 0.01 0.00 0.01 0.01 0.01 0.00 0.00 0.00 0.01 0.05 0.03 0.00 0.00 0.00 0.00 0.00 0.00 0.00 0.00 0.00 0.00 0.00 0.00 0.00 0.00 0.00
0.00 0.00 0.00 0.00 0.00 0.00 0.00 0.00 0.00 0.01 0.01 0.00 0.00 0.00 0.00 0.04 0.01 0.01 0.02 0.01 0.00 0.00 0.00 0.00 0.00 0.00 0.00 0.00 0.00 0.00 0.00 0.00
0.00 0.00 0.00 0.00 0.00 0.00 0.00 0.00 0.00 0.00 0.00 0.00 0.00 0.00 0.00 0.02 0.03 0.04 0.11 0.16 0.04 0.00 0.00 0.00 0.00 0.00 0.00 0.00 0.00 0.00 0.00 0.00
0.00 0.00 0.00 0.00 0.00 0.00 0.00 0.00 0.00 0.00 0.00 0.00 0.00 0.00 0.00 0.02 0.06 0.07 0.16 0.30 0.08 0.00 0.00 0.00 0.00 0.00 0.00 0.00 0.00 0.00 0.00 0.00
0.00 0.00 0.00 0.00 0.00 0.00 0.00 0.00 0.00 0.00 0.00 0.00 0.05 0.02 0.00 0.01 0.09 0.15 0.18 0.26 0.17 0.01 0.00 0.00 0.00 0.00 0.00 0.00 0.00 0.00 0.00 0.00
0.00 0.00 0.00 0.00 0.00 0.00 0.00 0.00 0.01 0.01 0.01 0.01 0.02 0.02 0.00 0.02 0.11 0.26 0.19 0.14 0.15 0.06 0.00 0.00 0.00 0.00 0.00 0.00 0.00 0.00 0.00 0.00
0.00 0.00 0.00 0.01 0.03 0.06 0.09 0.07 0.05 0.04 0.02 0.01 0.00 0.01 0.00 0.05 0.05 0.14 0.25 0.15 0.06 0.06 0.01 0.02 0.01 0.00 0.00 0.00 0.00 0.00 0.00 0.00
0.00 0.00 0.07 0.06 0.02 0.03 0.06 0.03 0.05 0.04 0.01 0.01 0.03 0.06 0.05 0.02 0.01 0.06 0.22 0.17 0.15 0.14 0.09 0.02 0.03 0.01 0.00 0.00 0.00 0.00 0.00 0.00
0.00 0.00 0.03 0.01 0.01 0.01 0.02 0.04 0.02 0.04 0.04 0.03 0.03 0.06 0.06 0.04 0.01 0.03 0.18 0.25 0.15 0.11 0.06 0.04 0.02 0.00 0.00 0.00 0.00 0.00 0.00 0.00
0.00 0.00 0.03 0.03 0.03 0.09 0.20 0.35 0.31 0.11 0.05 0.05 0.04 0.03 0.03 0.02 0.04 0.04 0.02 0.12 0.26 0.45 0.24 0.11 0.07 0.02 0.00 0.00 0.00 0.00 0.00 0.00
0.00 0.00 0.03 0.10 0.14 0.15 0.18 0.13 0.06 0.04 0.05 0.04 0.04 0.03 0.05 0.05 0.04 0.03 0.04 0.04 0.11 0.19 0.29 0.17 0.06 0.01 0.00 0.00 0.00 0.00 0.00 0.00
0.00 0.02 0.07 0.21 0.43 0.38 0.39 0.40 0.24 0.25 0.18 0.08 0.10 0.08 0.07 0.10 0.08 0.03 0.01 0.03 0.05 0.14 0.15 0.11 0.09 0.05 0.01 0.00 0.00 0.00 0.00 0.00
0.00 0.05 0.08 0.17 0.30 0.60 0.83 0.74 0.74 0.76 0.40 0.13 0.19 0.22 0.19 0.12 0.06 0.04 0.02 0.04 0.04 0.13 0.24 0.15 0.13 0.11 0.05 0.00 0.00 0.00 0.00 0.00
0.00 0.01 0.02 0.03 0.07 0.23 0.42 0.64 0.94 0.78 0.75 0.77 0.51 0.29 0.19 0.20 0.16 0.08 0.03 0.04 0.09 0.19 0.16 0.11 0.08 0.03 0.06 0.04 0.02 0.00 0.00 0.01
0.00 0.00 0.00 0.03 0.05 0.10 0.09 0.21 0.42 0.57 0.60 0.71 0.93 0.78 0.43 0.42 0.53 0.31 0.17 0.14 0.18 0.16 0.14 0.19 0.15 0.04 0.05 0.06 0.01 0.01 0.00 0.00

GFSFLT2_prec_precacc12_237.txt.gz
Total_Precipitation_Accumulation
0.00 0.00 0.01 0.02 0.01 0.01 0.00 0.00 0.00 0.00 0.00 0.00 0.00 0.00 0.00 0.00 0.00 0.00 0.00 0.00 0.00 0.00 0.00 0.00 0.00 0.00 0.00 0.00 0.00 0.00 0.00 0.00
0.00 0.00 0.01 0.01 0.00 0.01 0.01 0.01 0.00 0.00 0.00 0.00 0.00 0.00 0.00 0.00 0.00 0.00 0.00 0.00 0.00 0.00 0.00 0.00 0.00 0.00 0.00 0.00 0.00 0.00 0.00 0.00
0.00 0.00 0.01 0.01 0.00 0.00 0.01 0.01 0.00 0.00 0.00 0.00 0.00 0.00 0.00 0.00 0.00 0.00 0.00 0.00 0.00 0.00 0.00 0.00 0.00 0.00 0.00 0.00 0.00 0.00 0.00 0.00
0.01 0.01 0.01 0.01 0.01 0.00 0.00 0.00 0.00 0.00 0.00 0.00 0.00 0.00 0.00 0.00 0.00 0.00 0.00 0.00 0.00 0.00 0.00 0.00 0.00 0.00 0.00 0.00 0.00 0.00 0.00 0.00
0.01 0.01 0.01 0.01 0.01 0.01 0.01 0.00 0.00 0.01 0.00 0.00 0.00 0.00 0.00 0.00 0.00 0.00 0.00 0.00 0.00 0.00 0.00 0.00 0.00 0.00 0.00 0.00 0.00 0.00 0.00 0.00
0.00 0.01 0.02 0.02 0.00 0.01 0.00 0.00 0.00 0.01 0.00 0.00 0.00 0.00 0.00 0.00 0.01 0.00 0.00 0.00 0.00 0.00 0.00 0.00 0.00 0.00 0.00 0.00 0.00 0.00 0.00 0.00
0.00 0.00 0.00 0.02 0.01 0.00 0.00 0.00 0.00 0.01 0.00 0.00 0.00 0.00 0.00 0.00 0.01 0.01 0.02 0.01 0.00 0.00 0.00 0.00 0.00 0.00 0.00 0.00 0.00 0.00 0.00 0.00
0.00 0.00 0.00 0.00 0.01 0.00 0.00 0.00 0.00 0.00 0.00 0.00 0.00 0.00 0.00 0.00 0.03 0.04 0.11 0.17 0.04 0.00 0.00 0.00 0.00 0.00 0.00 0.00 0.00 0.00 0.00 0.00
0.00 0.00 0.01 0.01 0.02 0.00 0.00 0.00 0.00 0.00 0.00 0.00 0.00 0.00 0.00 0.02 0.06 0.07 0.17 0.34 0.09 0.00 0.00 0.00 0.00 0.00 0.00 0.00 0.00 0.00 0.00 0.00
0.00 0.00 0.00 0.03 0.02 0.01 0.00 0.00 0.00 0.00 0.00 0.00 0.00 0.00 0.00 0.01 0.12 0.15 0.24 0.32 0.19 0.01 0.00 0.00 0.00 0.00 0.00 0.00 0.00 0.00 0.00 0.00
0.00 0.00 0.00 0.01 0.02 0.03 0.01 0.01 0.00 0.01 0.01 0.01 0.00 0.00 0.00 0.04 0.21 0.33 0.27 0.20 0.20 0.07 0.00 0.00 0.00 0.00 0.00 0.00 0.00 0.00 0.00 0.00
0.00 0.00 0.00 0.00 0.02 0.11 0.15 0.09 0.05 0.03 0.01 0.01 0.00 0.01 0.01 0.16 0.25 0.32 0.34 0.19 0.11 0.07 0.00 0.00 0.00 0.00 0.00 0.00 0.00 0.00 0.00 0.00
0.00 0.00 0.00 0.00 0.01 0.04 0.06 0.04 0.06 0.05 0.01 0.02 0.03 0.08 0.08 0.09 0.23 0.24 0.38 0.24 0.18 0.15 0.09 0.00 0.00 0.00 0.00 0.00 0.00 0.00 0.00 0.00
0.00 0.00 0.00 0.00 0.00 0.01 0.02 0.06 0.04 0.07 0.10 0.05 0.03 0.06 0.10 0.09 0.20 0.20 0.34 0.39 0.19 0.12 0.08 0.03 0.00 0.00 0.00 0.00 0.00 0.00 0.00 0.00
0.00 0.00 0.00 0.00 0.00 0.04 0.20 0.34 0.28 0.11 0.06 0.05 0.04 0.02 0.03 0.10 0.08 0.13 0.17 0.34 0.34 0.46 0.25 0.10 0.05 0.00 0.00 0.00 0.00 0.00 0.00 0.00
0.00 0.00 0.00 0.01 0.04 0.07 0.10 0.08 0.05 0.04 0.05 0.04 0.03 0.03 0.02 0.07 0.09 0.09 0.13 0.19 0.24 0.26 0.35 0.21 0.06 0.01 0.00 0.00 0.00 0.00 0.00 0.00
0.00 0.02 0.02 0.04 0.05 0.02 0.13 0.15 0.12 0.13 0.18 0.08 0.07 0.08 0.07 0.11 0.09 0.04 0.09 0.10 0.15 0.24 0.16 0.14 0.09 0.05 0.01 0.00 0.00 0.00 0.00 0.00
0.00 0.05 0.08 0.17 0.24 0.36 0.39 0.38 0.45 0.56 0.35 0.12 0.18 0.21 0.21 0.13 0.06 0.04 0.06 0.11 0.09 0.19 0.36 0.20 0.16 0.13 0.07 0.00 0.00 0.00 0.00 0.00
0.00 0.01 0.02 0.03 0.07 0.23 0.33 0.44 0.73 0.56 0.61 0.64 0.44 0.30 0.20 0.19 0.14 0.05 0.03 0.06 0.12 0.23 0.19 0.17 0.14 0.07 0.08 0.07 0.04 0.01 0.01 0.01
0.00 0.00 0.00 0.03 0.05 0.11 0.08 0.11 0.20 0.30 0.44 0.64 0.87 0.74 0.41 0.46 0.59 0.31 0.19 0.20 0.25 0.21 0.17 0.28 0.27 0.12 0.10 0.10 0.04 0.04 0.03 0.03

GFSFLT2_prec_precacc12_240.txt.gz
Total_Precipitation_Accumulation
0.00 0.00 0.02 0.02 0.01 0.00 0.00 0.00 0.00 0.00 0.00 0.00 0.00 0.00 0.00 0.00 0.00 0.00 0.00 0.00 0.00 0.00 0.00 0.00 0.00 0.00 0.00 0.00 0.00 0.00 0.00 0.00
0.00 0.00 0.01 0.02 0.01 0.01 0.01 0.02 0.01 0.00 0.00 0.00 0.00 0.00 0.00 0.00 0.00 0.00 0.00 0.00 0.00 0.00 0.00 0.00 0.00 0.00 0.00 0.00 0.00 0.00 0.00 0.00
0.00 0.01 0.01 0.02 0.02 0.01 0.01 0.03 0.06 0.00 0.00 0.00 0.00 0.00 0.00 0.00 0.00 0.00 0.00 0.00 0.00 0.00 0.00 0.00 0.00 0.00 0.00 0.00 0.00 0.00 0.00 0.00
0.01 0.01 0.01 0.02 0.02 0.01 0.00 0.01 0.01 0.00 0.00 0.00 0.00 0.00 0.00 0.00 0.00 0.00 0.00 0.00 0.00 0.00 0.00 0.00 0.00 0.00 0.00 0.00 0.00 0.00 0.00 0.00
0.01 0.01 0.01 0.02 0.02 0.01 0.01 0.00 0.00 0.01 0.00 0.00 0.00 0.00 0.00 0.00 0.01 0.00 0.00 0.00 0.00 0.00 0.00 0.00 0.00 0.00 0.00 0.00 0.00 0.00 0.00 0.00
0.00 0.01 0.02 0.02 0.02 0.01 0.00 0.00 0.00 0.04 0.01 0.00 0.00 0.00 0.00 0.00 0.00 0.00 0.00 0.00 0.00 0.00 0.00 0.00 0.00 0.00 0.00 0.00 0.00 0.00 0.00 0.00
0.00 0.00 0.01 0.02 0.03 0.01 0.00 0.00 0.00 0.00 0.00 0.00 0.00 0.00 0.00 0.00 0.00 0.00 0.02 0.01 0.00 0.00 0.00 0.00 0.00 0.00 0.00 0.00 0.00 0.00 0.00 0.00
0.00 0.00 0.00 0.01 0.01 0.01 0.00 0.00 0.00 0.00 0.00 0.00 0.00 0.00 0.00 0.00 0.00 0.01 0.08 0.15 0.04 0.00 0.00 0.00 0.00 0.00 0.00 0.00 0.00 0.00 0.00 0.00
0.00 0.00 0.01 0.01 0.02 0.01 0.00 0.00 0.00 0.00 0.00 0.00 0.00 0.00 0.00 0.01 0.04 0.05 0.13 0.28 0.08 0.00 0.00 0.00 0.00 0.00 0.00 0.00 0.00 0.00 0.00 0.00
0.00 0.00 0.00 0.03 0.03 0.02 0.01 0.00 0.00 0.00 0.00 0.00 0.00 0.00 0.00 0.01 0.08 0.07 0.16 0.27 0.18 0.01 0.00 0.00 0.00 0.00 0.00 0.00 0.00 0.00 0.00 0.00
0.00 0.00 0.00 0.01 0.02 0.04 0.06 0.03 0.01 0.00 0.00 0.00 0.00 0.00 0.00 0.03 0.19 0.28 0.26 0.20 0.19 0.07 0.00 0.00 0.00 0.00 0.00 0.00 0.00 0.00 0.00 0.00
0.00 0.00 0.00 0.00 0.01 0.09 0.17 0.12 0.07 0.03 0.01 0.01 0.00 0.01 0.01 0.15 0.23 0.30 0.33 0.20 0.11 0.08 0.00 0.00 0.00 0.00 0.00 0.00 0.00 0.00 0.00 0.00
0.00 0.00 0.00 0.00 0.01 0.04 0.06 0.04 0.06 0.04 0.01 0.01 0.03 0.08 0.08 0.10 0.23 0.27 0.40 0.26 0.20 0.16 0.10 0.00 0.00 0.00 0.00 0.00 0.00 0.00 0.00 0.00
0.00 0.00 0.00 0.00 0.00 0.02 0.02 0.05 0.03 0.07 0.10 0.05 0.04 0.07 0.11 0.10 0.25 0.31 0.37 0.42 0.22 0.14 0.08 0.03 0.00 0.00 0.00 0.00 0.00 0.00 0.00 0.00
0.00 0.00 0.00 0.00 0.00 0.00 0.01 0.02 0.05 0.09 0.06 0.05 0.04 0.02 0.04 0.10 0.14 0.28 0.24 0.40 0.37 0.38 0.21 0.10 0.05 0.00 0.00 0.00 0.00 0.00 0.00 0.00
0.00 0.00 0.00 0.00 0.00 0.00 0.03 0.04 0.05 0.03 0.02 0.04 0.03 0.04 0.02 0.09 0.14 0.22 0.24 0.27 0.28 0.28 0.32 0.19 0.05 0.01 0.00 0.00 0.00 0.00 0.00 0.00
0.00 0.00 0.00 0.00 0.00 0.00 0.01 0.04 0.03 0.05 0.07 0.06 0.07 0.07 0.09 0.14 0.13 0.10 0.20 0.20 0.22 0.31 0.18 0.15 0.10 0.05 0.01 0.00 0.00 0.00 0.00 0.00
0.00 0.00 0.00 0.00 0.02 0.15 0.14 0.14 0.07 0.08 0.12 0.08 0.15 0.20 0.22 0.16 0.09 0.06 0.09 0.19 0.14 0.26 0.40 0.24 0.18 0.13 0.08 0.00 0.00 0.00 0.00 0.00
0.00 0.01 0.02 0.02 0.03 0.11 0.16 0.20 0.23 0.24 0.19 0.32 0.24 0.22 0.20 0.19 0.12 0.05 0.04 0.08 0.14 0.27 0.25 0.16 0.15 0.07 0.09 0.08 0.04 0.01 0.01 0.01
0.00 0.00 0.00 0.03 0.05 0.10 0.08 0.08 0.10 0.16 0.24 0.39 0.53 0.46 0.22 0.33 0.49 0.32 0.22 0.24 0.32 0.26 0.27 0.39 0.30 0.15 0.11 0.11 0.06 0.07 0.04 0.04

GFSFLT2_prec_precacc12_243.txt.gz
Total_Precipitation_Accumulation
0.00 0.00 0.01 0.01 0.00 0.00 0.00 0.00 0.00 0.00 0.00 0.00 0.00 0.00 0.00 0.00 0.00 0.00 0.00 0.00 0.00 0.00 0.00 0.00 0.00 0.00 0.00 0.00 0.00 0.00 0.00 0.00
0.00 0.00 0.01 0.02 0.01 0.00 0.01 0.02 0.01 0.00 0.00 0.00 0.00 0.00 0.00 0.00 0.00 0.00 0.00 0.00 0.00 0.00 0.00 0.00 0.00 0.00 0.00 0.00 0.00 0.00 0.00 0.00
0.00 0.01 0.01 0.02 0.02 0.01 0.01 0.03 0.06 0.00 0.00 0.00 0.00 0.00 0.00 0.00 0.00 0.00 0.00 0.00 0.00 0.00 0.00 0.00 0.00 0.00 0.00 0.00 0.00 0.00 0.00 0.00
0.01 0.01 0.01 0.02 0.02 0.02 0.01 0.01 0.01 0.00 0.00 0.00 0.00 0.00 0.00 0.00 0.00 0.00 0.00 0.00 0.00 0.00 0.00 0.00 0.00 0.00 0.00 0.00 0.00 0.00 0.00 0.00
0.01 0.01 0.01 0.02 0.02 0.02 0.02 0.01 0.01 0.03 0.01 0.00 0.00 0.00 0.00 0.00 0.01 0.01 0.00 0.00 0.00 0.00 0.00 0.00 0.00 0.00 0.00 0.00 0.00 0.00 0.00 0.00
0.00 0.01 0.02 0.02 0.03 0.01 0.00 0.01 0.01 0.09 0.09 0.01 0.00 0.01 0.00 0.00 0.01 0.00 0.00 0.00 0.00 0.00 0.00 0.00 0.00 0.00 0.00 0.00 0.00 0.00 0.00 0.00
0.00 0.00 0.01 0.03 0.04 0.01 0.00 0.00 0.00 0.07 0.08 0.04 0.01 0.02 0.03 0.00 0.00 0.00 0.00 0.00 0.00 0.00 0.00 0.00 0.00 0.00 0.00 0.00 0.00 0.00 0.00 0.00
0.00 0.00 0.00 0.01 0.02 0.02 0.00 0.00 0.00 0.02 0.05 0.02 0.03 0.01 0.01 0.00 0.00 0.00 0.02 0.06 0.01 0.00 0.00 0.00 0.00 0.00 0.00 0.00 0.00 0.00 0.00 0.00
0.00 0.00 0.01 0.01 0.03 0.01 0.00 0.00 0.00 0.00 0.01 0.03 0.02 0.01 0.01 0.00 0.01 0.01 0.06 0.18 0.03 0.00 0.00 0.00 0.00 0.00 0.00 0.00 0.00 0.00 0.00 0.00
0.00 0.00 0.00 0.03 0.03 0.02 0.01 0.00 0.00 0.00 0.00 0.01 0.01 0.01 0.01 0.00 0.06 0.05 0.10 0.18 0.08 0.01 0.00 0.00 0.00 0.00 0.00 0.00 0.00 0.00 0.00 0.00
0.00 0.00 0.00 0.01 0.02 0.04 0.06 0.02 0.00 0.00 0.00 0.00 0.00 0.00 0.00 0.03 0.18 0.22 0.18 0.16 0.12 0.05 0.00 0.00 0.00 0.00 0.00 0.00 0.00 0.00 0.00 0.00
0.00 0.00 0.00 0.00 0.01 0.09 0.12 0.07 0.04 0.01 0.00 0.00 0.00 0.01 0.00 0.14 0.22 0.26 0.27 0.18 0.09 0.06 0.00 0.00 0.00 0.00 0.00 0.00 0.00 0.00 0.00 0.00
0.00 0.00 0.00 0.08 0.02 0.04 0.04 0.03 0.06 0.03 0.01 0.01 0.03 0.08 0.08 0.09 0.23 0.25 0.37 0.22 0.13 0.09 0.07 0.00 0.00 0.00 0.00 0.00 0.00 0.00 0.00 0.00
0.00 0.00 0.00 0.08 0.14 0.04 0.01 0.04 0.02 0.03 0.07 0.04 0.03 0.07 0.10 0.10 0.25 0.31 0.32 0.33 0.17 0.06 0.06 0.03 0.00 0.00 0.00 0.00 0.00 0.00 0.00 0.00
0.00 0.00 0.00 0.01 0.05 0.12 0.12 0.07 0.03 0.03 0.04 0.03 0.02 0.02 0.03 0.10 0.14 0.28 0.24 0.38 0.30 0.22 0.12 0.06 0.03 0.00 0.00 0.00 0.00 0.00 0.00 0.00
0.00 0.00 0.00 0.00 0.09 0.11 0.05 0.05 0.03 0.01 0.01 0.03 0.02 0.03 0.02 0.10 0.14 0.22 0.25 0.27 0.31 0.27 0.21 0.13 0.05 0.02 0.00 0.00 0.00 0.00 0.00 0.00
0.00 0.00 0.00 0.00 0.03 0.06 0.09 0.03 0.03 0.02 0.02 0.03 0.04 0.05 0.08 0.14 0.14 0.11 0.21 0.21 0.29 0.35 0.18 0.11 0.08 0.05 0.02 0.00 0.00 0.00 0.00 0.00
0.00 0.00 0.00 0.00 0.02 0.17 0.20 0.14 0.12 0.08 0.04 0.03 0.07 0.10 0.13 0.12 0.09 0.07 0.11 0.19 0.18 0.30 0.43 0.24 0.18 0.13 0.07 0.01 0.00 0.00 0.00 0.00
0.01 0.03 0.00 0.00 0.00 0.14 0.14 0.15 0.24 0.17 0.11 0.05 0.09 0.10 0.12 0.07 0.06 0.04 0.05 0.09 0.13 0.26 0.26 0.18 0.16 0.09 0.11 0.09 0.04 0.01 0.01 0.01
0.02 0.04 0.04 0.03 0.02 0.03 0.09 0.22 0.22 0.25 0.24 0.27 0.30 0.20 0.10 0.16 0.25 0.21 0.18 0.21 0.28 0.27 0.28 0.40 0.32 0.15 0.11 0.12 0.07 0.07 0.05 0.04

GFSFLT2_prec_precacc12_246.txt.gz
Total_Precipitation_Accumulation
0.00 0.00 0.01 0.01 0.00 0.00 0.00 0.00 0.00 0.00 0.00 0.00 0.00 0.00 0.00 0.00 0.00 0.00 0.00 0.00 0.00 0.00 0.00 0.00 0.00 0.00 0.00 0.00 0.00 0.00 0.02 0.00
0.00 0.00 0.01 0.02 0.01 0.00 0.00 0.02 0.01 0.00 0.00 0.00 0.00 0.00 0.00 0.00 0.00 0.00 0.00 0.00 0.00 0.00 0.00 0.00 0.00 0.00 0.00 0.00 0.00 0.00 0.00 0.00
0.00 0.00 0.01 0.02 0.03 0.01 0.01 0.03 0.06 0.00 0.00 0.00 0.00 0.00 0.00 0.00 0.00 0.00 0.00 0.00 0.00 0.00 0.00 0.00 0.00 0.00 0.00 0.00 0.00 0.00 0.00 0.00
0.00 0.01 0.01 0.02 0.02 0.02 0.02 0.02 0.02 0.00 0.00 0.00 0.00 0.00 0.00 0.00 0.00 0.00 0.00 0.00 0.00 0.00 0.00 0.00 0.00 0.00 0.00 0.00 0.00 0.00 0.00 0.00
0.00 0.00 0.01 0.02 0.02 0.02 0.02 0.02 0.01 0.03 0.01 0.00 0.00 0.00 0.00 0.00 0.01 0.01 0.00 0.00 0.00 0.00 0.00 0.00 0.00 0.00 0.00 0.00 0.00 0.00 0.00 0.00
0.00 0.00 0.01 0.02 0.03 0.01 0.01 0.01 0.01 0.10 0.10 0.01 0.00 0.01 0.00 0.00 0.01 0.00 0.00 0.00 0.00 0.00 0.00 0.00 0.00 0.00 0.00 0.00 0.00 0.00 0.00 0.00
0.00 0.00 0.00 0.02 0.04 0.01 0.00 0.01 0.00 0.07 0.09 0.04 0.01 0.02 0.03 0.00 0.00 0.00 0.00 0.00 0.00 0.00 0.00 0.00 0.00 0.00 0.00 0.00 0.00 0.00 0.00 0.00
0.00 0.00 0.00 0.01 0.02 0.02 0.00 0.00 0.00 0.02 0.06 0.02 0.04 0.02 0.01 0.00 0.00 0.00 0.00 0.00 0.00 0.00 0.00 0.00 0.00 0.00 0.00 0.00 0.00 0.00 0.00 0.00
0.00 0.00 0.01 0.01 0.03 0.01 0.00 0.00 0.00 0.00 0.02 0.05 0.02 0.04 0.01 0.00 0.00 0.00 0.02 0.04 0.00 0.00 0.00 0.00 0.00 0.00 0.00 0.00 0.00 0.00 0.00 0.00
0.00 0.00 0.00 0.03 0.03 0.02 0.01 0.00 0.00 0.00 0.00 0.02 0.03 0.04 0.03 0.02 0.03 0.01 0.06 0.07 0.01 0.00 0.00 0.00 0.00 0.00 0.00 0.00 0.00 0.00 0.00 0.00
0.00 0.00 0.01 0.04 0.02 0.04 0.06 0.02 0.00 0.00 0.01 0.04 0.04 0.03 0.06 0.04 0.11 0.07 0.09 0.07 0.05 0.01 0.00 0.00 0.00 0.00 0.00 0.00 0.00 0.00 0.00 0.00
0.00 0.00 0.00 0.09 0.06 0.08 0.11 0.06 0.06 0.00 0.00 0.01 0.04 0.03 0.01 0.11 0.19 0.20 0.12 0.08 0.07 0.02 0.00 0.00 0.00 0.00 0.00 0.00 0.00 0.00 0.00 0.00
0.00 0.00 0.00 0.16 0.21 0.10 0.08 0.02 0.13 0.04 0.01 0.01 0.00 0.04 0.04 0.08 0.23 0.25 0.21 0.12 0.10 0.05 0.02 0.00 0.00 0.00 0.00 0.00 0.00 0.00 0.00 0.00
0.00 0.00 0.00 0.09 0.21 0.09 0.05 0.03 0.02 0.04 0.06 0.02 0.01 0.02 0.07 0.06 0.25 0.28 0.23 0.21 0.10 0.04 0.03 0.01 0.00 0.00 0.00 0.00 0.00 0.00 0.00 0.00
0.00 0.00 0.00 0.01 0.06 0.35 0.55 0.42 0.17 0.29 0.17 0.04 0.01 0.01 0.05 0.10 0.10 0.24 0.23 0.31 0.21 0.12 0.05 0.01 0.01 0.00 0.00 0.00 0.00 0.00 0.00 0.00
0.01 0.00 0.00 0.00 0.09 0.21 0.22 0.33 0.19 0.16 0.16 0.17 0.03 0.02 0.02 0.08 0.12 0.19 0.21 0.26 0.26 0.20 0.13 0.06 0.01 0.01 0.00 0.00 0.00 0.00 0.00 0.00
0.00 0.00 0.02 0.00 0.03 0.06 0.15 0.31 0.20 0.08 0.16 0.22 0.15 0.04 0.07 0.12 0.12 0.17 0.23 0.19 0.28 0.29 0.13 0.08 0.03 0.02 0.01 0.00 0.00 0.00 0.00 0.00
0.00 0.00 0.01 0.01 0.03 0.19 0.33 0.26 0.26 0.27 0.12 0.14 0.30 0.17 0.09 0.11 0.09 0.06 0.11 0.19 0.18 0.28 0.33 0.20 0.11 0.04 0.03 0.01 0.00 0.00 0.00 0.00
0.02 0.04 0.01 0.01 0.02 0.18 0.24 0.21 0.34 0.25 0.20 0.14 0.14 0.26 0.13 0.05 0.05 0.04 0.05 0.12 0.14 0.25 0.26 0.19 0.16 0.11 0.08 0.07 0.02 0.01 0.00 0.00
0.07 0.07 0.08 0.05 0.05 0.12 0.31 0.42 0.46 0.60 0.58 0.44 0.31 0.15 0.11 0.09 0.11 0.12 0.16 0.25 0.24 0.24 0.29 0.36 0.26 0.14 0.08 0.08 0.07 0.07 0.05 0.04